This demonstration page uses our WeatherBlox Daily Observations layout. Learn more.

Left ArrowRight Arrow

Hourly Observations for October 4, 2022

Temp ( °F °C ) Dew Point ( °F °C ) Humidity (%) Winds ( mph kmh ) Pressure ( in mb ) Visibility ( mi km ) Precip ( " mm )
12:53 am 00:53 Clear 56 13.3 53 11.7 90 90 Calm 30.10 1019 10 16 0.00 0.00
1:53 am 01:53 Clear 55 12.8 53 11.7 93 93 Calm 30.10 1019 10 16 0.00 0.00
2:53 am 02:53 Clear 55 12.8 52 11.1 89 89 Calm 30.10 1019 10 16 0.00 0.00
3:53 am 03:53 Clear 53 11.7 51 10.6 93 93 Calm 30.09 1019 10 16 0.00 0.00
4:53 am 04:53 Clear 52 11.1 51 10.6 97 97 Calm 30.09 1019 10 16 0.00 0.00
5:53 am 05:53 Cloudy 54 12.2 52 11.1 93 93 Calm 30.10 1019 10 16 0.00 0.00
6:53 am 06:53 Mostly Cloudy 53 11.7 52 11.1 96 96 Calm 30.11 1020 10 16 0.00 0.00
7:53 am 07:53 Mostly Cloudy 54 12.2 52 11.1 93 93 Calm 30.13 1020 10 16 0.00 0.00
8:53 am 08:53 Cloudy 59 15 55 12.8 87 87 Calm 30.14 1021 10 16 0.00 0.00
9:53 am 09:53 Cloudy 63 17.2 54 12.2 72 72 VRB 3 6 30.15 1021 10 16 0.00 0.00
10:53 am 10:53 Mostly Sunny 66 18.9 53 11.7 63 63 VRB 5 7 30.15 1021 10 16 0.00 0.00
11:53 am 11:53 Mostly Sunny 68 20 53 11.7 59 59 SW 5 7 30.14 1021 10 16 0.00 0.00
12:53 pm 12:53 Cloudy 69 20.6 53 11.7 57 57 W 6 9 30.13 1020 10 16 0.00 0.00
1:53 pm 13:53 Mostly Cloudy 74 23.3 53 11.7 48 48 WNW 7 11 30.10 1019 10 16 0.00 0.00
2:53 pm 14:53 Partly Cloudy 73 22.8 52 11.1 48 48 NW 8 13 30.07 1018 10 16 0.00 0.00
3:53 pm 15:53 Mostly Cloudy 74 23.3 52 11.1 46 46 NNW 6 9 30.04 1017 10 16 0.00 0.00
4:53 pm 16:53 Sunny 75 23.9 50 10 41 41 NW 8 13 30.03 1017 10 16 0.00 0.00
5:53 pm 17:53 Sunny 75 23.9 50 10 41 41 NW 9 15 30.02 1017 10 16 0.00 0.00
6:53 pm 18:53 Sunny 72 22.2 50 10 46 46 NW 7 11 30.03 1017 10 16 0.00 0.00
7:53 pm 19:53 Clear 68 20 50 10 53 53 Calm 30.03 1017 10 16 0.00 0.00
8:53 pm 20:53 Clear 63 17.2 51 10.6 65 65 Calm 30.05 1018 10 16 0.00 0.00
9:53 pm 21:53 Clear 59 15 52 11.1 77 77 Calm 30.05 1018 10 16 0.00 0.00
10:53 pm 22:53 Clear 56 13.3 51 10.6 84 84 Calm 30.06 1018 10 16 0.00 0.00
11:53 pm 23:53 Clear 55 12.8 51 10.6 86 86 Calm 30.06 1018 10 16 0.00 0.00

Powered by AerisWeather